Location: Unspecified
(38.9820°N, 94.4650°W)
Time: 06:22:38
(UTC-05:00)

Resurs 1-4 Rocket - Visible Passes

Search period start: 22 July 2014 00:00
Search period end: 01 August 2014 00:00
Orbit: 800 x 815 km, 98.3° (Epoch: 21 July)

Date Brightness Start Highest point End Pass type
(mag) Time Alt. Az. Time Alt. Az. Time Alt. Az.
22 Jul 3.9 04:40:50 10° NE 04:45:19 28° E 04:49:45 10° SSE visible
23 Jul 4.6 04:17:27 10° NE 04:20:41 16° E 04:23:54 10° SE visible
24 Jul 2.2 05:31:15 10° NNE 05:36:32 86° ESE 05:41:47 10° SSW visible
25 Jul 2.9 05:06:59 10° NNE 05:12:06 50° E 05:17:10 10° S visible
26 Jul 3.8 04:43:00 10° NE 04:47:34 30° E 04:52:06 10° SSE visible
27 Jul 4.6 04:19:32 10° NE 04:22:58 17° E 04:26:22 10° SE visible
28 Jul 2.1 05:33:30 10° NNE 05:38:47 89° WNW 05:44:01 10° SSW visible
29 Jul 2.8 05:09:12 10° NNE 05:14:21 54° E 05:19:27 10° S visible
30 Jul 3.7 04:45:11 10° NE 04:49:50 31° E 04:54:27 10° SSE visible
31 Jul 4.5 04:21:37 10° NE 04:25:14 19° E 04:28:49 10° SE visible
